K5NCO Weather Reports


Display with metric or nautical units.
time (UTC)temp
F
wind
direction
speed
MPH
gust
MPH
rain 1hr
in
rain 24hr
in
rain mn
in
humidity
%
barometer
mb
20260502200407 72 319 9.0 11.0 0.00 0.00 0.00 42 1022.8
20260502195906 73 26 9.0 11.0 0.00 0.00 0.00 42 1022.8
20260502195402 72 273 5.0 10.0 0.00 0.00 0.00 42 1022.5
20260502194859 72 346 2.0 2.0 0.00 0.00 0.00 43 1022.6
20260502194355 73 353 2.0 3.0 0.00 0.00 0.00 44 1022.8
20260502193851 72 11 2.0 4.0 0.00 0.00 0.00 44 1022.6
20260502193349 71 325 2.0 3.0 0.00 0.00 0.00 44 1022.6
20260502192844 71 28 5.0 7.0 0.00 0.00 0.00 43 1023.1
20260502192341 72 47 2.0 3.0 0.00 0.00 0.00 45 1022.9
20260502191838 71 36 4.0 6.0 0.00 0.00 0.00 46 1023.0
20260502191337 71 11 4.0 7.0 0.00 0.00 0.00 48 1022.8
20260502190833 71 296 2.0 2.0 0.00 0.00 0.00 48 1023.0
20260502190331 71 339 6.0 10.0 0.00 0.00 0.00 48 1023.0
20260502185826 70 24 4.0 4.0 0.00 0.00 0.00 48 1023.2
20260502185322 71 82 3.0 4.0 0.00 0.00 0.00 49 1023.0
20260502184820 71 27 4.0 4.0 0.00 0.00 0.00 50 1023.0
20260502184315 70 340 6.0 7.0 0.00 0.00 0.00 47 1023.3
20260502183812 69 12 3.0 3.0 0.00 0.00 0.00 49 1023.1
20260502183308 70 310 4.0 4.0 0.00 0.00 0.00 53 1023.3
20260502182803 70 27 5.0 7.0 0.00 0.00 0.00 53 1023.4
20260502182259 69 42 7.0 9.0 0.00 0.00 0.00 54 1023.6
20260502181755 69 347 8.0 10.0 0.00 0.00 0.00 53 1023.6
20260502181255 69 309 3.0 4.0 0.00 0.00 0.00 53 1023.6
20260502180752 70 345 8.0 9.0 0.00 0.00 0.00 54 1023.9
20260502180249 69 19 4.0 4.0 0.00 0.00 0.00 53 1023.9
20260502170214 67 12 1.0 2.0 0.00 0.00 0.00 60 1024.3
20260502164201 66 313 8.0 9.0 0.00 0.00 0.00 59 1024.6
20260502163655 66 343 5.0 8.0 0.00 0.00 0.00 60 1024.7
20260502163153 65 314 4.0 6.0 0.00 0.00 0.00 59 1024.8
20260502162650 65 11 5.0 7.0 0.00 0.00 0.00 58 1024.7
20260502162147 66 4 6.0 9.0 0.00 0.00 0.00 57 1024.7
20260502161644 66 2 3.0 4.0 0.00 0.00 0.00 59 1024.6
20260502161140 65 357 5.0 7.0 0.00 0.00 0.00 58 1024.6
20260502160638 66 352 2.0 6.0 0.00 0.00 0.00 59 1024.6
20260502160137 65 5 3.0 4.0 0.00 0.00 0.00 58 1024.6
20260502152051 63 30 2.0 2.0 0.00 0.00 0.00 64 1024.8
20260502151548 62 346 4.0 6.0 0.00 0.00 0.00 63 1024.6
20260502151046 62 346 6.0 7.0 0.00 0.00 0.00 63 1024.5
20260502150543 62 337 4.0 6.0 0.00 0.00 0.00 66 1024.5
20260502130422 53 318 4.0 6.0 0.00 0.00 0.00 89 1023.5
20260502123404 50 331 2.0 2.0 0.00 0.00 0.00 94 1022.9
20260502122901 50 298 4.0 4.0 0.00 0.00 0.00 94 1022.8
20260502122357 50 319 2.0 2.0 0.00 0.00 0.00 95 1022.8
20260502121856 50 292 1.0 2.0 0.00 0.00 0.00 95 1022.8
20260502121353 50 292 3.0 3.0 0.00 0.00 0.00 95 1022.5
20260502120851 50 281 3.0 3.0 0.00 0.00 0.00 95 1022.4
20260502120346 49 298 2.0 3.0 0.00 0.00 0.00 96 1022.3
20260502115844 49 278 2.0 2.0 0.00 0.00 0.00 96 1022.2
20260502115341 50 288 2.0 2.0 0.00 0.00 0.00 96 1022.2
20260502114837 50 311 2.0 3.0 0.00 0.00 0.00 95 1022.0
20260502114334 50 288 2.0 3.0 0.00 0.00 0.00 95 1022.3
20260502113831 50 290 2.0 2.0 0.00 0.00 0.00 95 1022.0
20260502113328 50 285 2.0 2.0 0.00 0.00 0.00 95 1022.1
20260502112827 50 285 1.0 1.0 0.00 0.00 0.00 95 1022.1
20260502112324 50 291 0.0 0.0 0.00 0.00 0.00 93 1021.8
20260502111821 50 272 0.0 0.0 0.00 0.00 0.00 93 1022.0
20260502111319 50 280 0.0 0.0 0.00 0.00 0.00 93 1021.9
20260502110816 50 262 1.0 1.0 0.00 0.00 0.00 93 1021.9
20260502110314 50 283 2.0 2.0 0.00 0.00 0.00 93 1021.7
20260502105811 50 233 0.0 0.0 0.00 0.00 0.00 93 1021.5
20260502105308 50 224 2.0 2.0 0.00 0.00 0.00 94 1021.4
20260502104806 50 243 0.0 0.0 0.00 0.00 0.00 94 1021.5
20260502104302 51 232 2.0 2.0 0.00 0.00 0.00 93 1021.3
20260502103800 51 280 1.0 1.0 0.00 0.00 0.00 93 1021.2
20260502103257 51 298 1.0 2.0 0.00 0.00 0.00 92 1021.0
20260502102755 51 318 2.0 2.0 0.00 0.00 0.00 92 1021.0
20260502102250 51 338 2.0 3.0 0.00 0.00 0.00 92 1020.6
20260502101749 51 331 2.0 3.0 0.00 0.00 0.00 92 1020.7
20260502101247 51 343 4.0 7.0 0.00 0.00 0.00 92 1020.7
20260502100744 51 329 2.0 3.0 0.00 0.00 0.00 91 1020.6
20260502100243 51 335 2.0 2.0 0.00 0.00 0.00 90 1020.7
20260502091217 52 8 2.0 2.0 0.00 0.00 0.00 92 1020.1
20260502090714 52 356 3.0 4.0 0.00 0.00 0.00 92 1020.1
20260502090211 52 347 6.0 8.0 0.00 0.00 0.00 92 1020.2
20260502071107 52 339 2.0 4.0 0.00 0.00 0.00 94 1020.0
20260502070605 52 318 1.0 1.0 0.00 0.00 0.00 94 1020.2
20260502065601 52 332 4.0 4.0 0.00 0.00 0.00 94 1020.0
20260502065058 52 341 0.0 1.0 0.00 0.00 0.00 94 1020.0
20260502064556 52 336 2.0 3.0 0.00 0.00 0.00 94 1020.1
20260502064053 52 334 2.0 2.0 0.00 0.00 0.00 94 1020.1
20260502063551 52 317 1.0 2.0 0.00 0.00 0.00 94 1020.0
20260502063049 52 359 2.0 3.0 0.00 0.00 0.00 94 1020.0
20260502062545 53 349 1.0 1.0 0.00 0.00 0.00 94 1019.9
20260502062044 53 347 2.0 2.0 0.00 0.00 0.00 93 1020.1
20260502061541 53 324 4.0 7.0 0.00 0.00 0.00 93 1020.2
20260502061038 53 356 1.0 2.0 0.00 0.00 0.00 93 1020.1
20260502060534 53 345 3.0 4.0 0.00 0.00 0.00 93 1020.2
20260502060031 53 316 1.0 2.0 0.00 0.00 0.00 93 1020.2
20260502055528 53 345 4.0 6.0 0.00 0.00 0.00 93 1020.2
20260502055027 53 341 3.0 4.0 0.00 0.00 0.00 93 1020.1
20260502054525 53 318 2.0 2.0 0.00 0.00 0.00 94 1020.2
20260502054022 53 347 4.0 6.0 0.00 0.00 0.00 95 1020.2
20260502053519 53 316 2.0 3.0 0.00 0.00 0.00 94 1020.1
20260502053017 53 338 0.0 1.0 0.00 0.00 0.00 93 1020.0
20260502052515 53 326 2.0 3.0 0.00 0.00 0.00 93 1020.2
20260502052013 53 319 1.0 2.0 0.00 0.00 0.00 93 1020.0
20260502051511 53 340 2.0 2.0 0.00 0.00 0.00 92 1019.9
20260502051008 54 356 2.0 3.0 0.00 0.00 0.00 92 1019.8
20260502050504 54 15 2.0 3.0 0.00 0.00 0.00 92 1020.0
20260502050001 54 340 2.0 4.0 0.00 1.12 1.12 92 1020.1
20260502045458 54 341 4.0 6.0 0.00 1.12 1.12 91 1020.0
20260502044955 54 331 5.0 7.0 0.00 1.12 1.12 91 1019.9
20260502044450 54 6 2.0 4.0 0.00 1.12 1.12 91 1019.8
20260502043948 54 338 4.0 4.0 0.00 1.12 1.12 91 1019.9
20260502043445 54 4 5.0 7.0 0.00 1.12 1.12 91 1019.7
20260502042944 54 16 2.0 3.0 0.00 1.12 1.12 90 1019.8
20260502042442 55 9 3.0 3.0 0.00 1.12 1.12 90 1019.9
20260502041939 55 0 1.0 1.0 0.00 1.12 1.12 90 1019.9
20260502041437 55 346 5.0 9.0 0.00 1.12 1.12 90 1019.9
20260502040934 55 345 2.0 4.0 0.00 1.12 1.12 89 1019.8
20260502040430 55 351 3.0 4.0 0.00 1.12 1.12 90 1019.9
20260502035927 55 355 5.0 8.0 0.00 1.12 1.12 90 1019.9
20260502035423 55 339 2.0 4.0 0.00 1.12 1.12 89 1020.1
20260502034921 55 16 2.0 3.0 0.00 1.12 1.12 90 1020.2
20260502034420 55 329 6.0 8.0 0.00 1.12 1.12 90 1019.7
20260502033917 55 339 6.0 8.0 0.00 1.12 1.12 90 1019.8
20260502033415 55 355 1.0 2.0 0.00 1.12 1.12 90 1019.9
20260502032911 55 308 3.0 6.0 0.00 1.12 1.12 90 1019.6
20260502032408 55 337 7.0 11.0 0.00 1.12 1.12 90 1019.7
20260502031905 55 340 5.0 8.0 0.00 1.12 1.12 90 1019.7
20260502031403 55 342 2.0 3.0 0.00 1.12 1.12 90 1019.7
20260502030901 55 355 6.0 8.0 0.00 1.12 1.12 90 1019.7
20260502030359 55 324 5.0 6.0 0.00 1.12 1.12 90 1019.5
20260502025856 55 343 3.0 6.0 0.00 1.12 1.12 90 1019.4
20260502025353 55 341 4.0 4.0 0.00 1.12 1.12 90 1019.4
20260502024851 55 24 6.0 7.0 0.00 1.12 1.12 90 1019.4
20260502024349 55 305 3.0 4.0 0.00 1.12 1.12 90 1019.4
20260502023847 55 14 7.0 11.0 0.00 1.12 1.12 89 1019.2
20260502023344 55 25 9.0 11.0 0.00 1.12 1.12 89 1019.1
20260502022842 54 42 6.0 9.0 0.00 1.12 1.12 90 1019.1
20260502022338 54 26 4.0 6.0 0.00 1.12 1.12 91 1018.9
20260502021835 54 345 3.0 7.0 0.00 1.12 1.12 92 1018.7
20260502021332 54 14 4.0 6.0 0.00 1.12 1.12 93 1018.6
20260502020830 54 16 3.0 6.0 0.00 1.12 1.12 93 1018.5
20260502020327 54 24 8.0 10.0 0.00 1.12 1.12 93 1018.6
20260502015824 54 21 4.0 7.0 0.00 1.12 1.12 93 1018.5
20260502015320 54 4 4.0 7.0 0.00 1.12 1.12 93 1018.4
20260502014817 54 44 6.0 9.0 0.00 1.12 1.12 93 1018.4
20260502014314 54 35 10.0 13.0 0.00 1.12 1.12 91 1018.2
20260502013810 54 35 4.0 6.0 0.00 1.12 1.12 92 1018.1
20260502013306 54 19 7.0 8.0 0.00 1.12 1.12 91 1018.2
20260502012804 54 9 3.0 3.0 0.00 1.12 1.12 91 1017.9
20260502012301 54 355 12.0 15.0 0.00 1.12 1.12 91 1018.2
20260502011758 54 339 6.0 8.0 0.00 1.12 1.12 91 1017.8
20260502011254 54 9 8.0 10.0 0.00 1.12 1.12 91 1017.6
20260502010752 54 55 9.0 14.0 0.00 1.12 1.12 91 1017.8
20260502010248 54 10 10.0 15.0 0.00 1.12 1.12 91 1017.6
20260502005745 54 43 7.0 9.0 0.00 1.12 1.12 91 1017.5
20260502005243 54 332 9.0 13.0 0.00 1.12 1.12 91 1017.4
20260502004739 54 344 7.0 8.0 0.00 1.12 1.12 91 1017.2
20260502004236 54 4 6.0 8.0 0.00 1.12 1.12 92 1017.4
20260502003734 54 359 8.0 10.0 0.00 1.12 1.12 94 1017.2
20260502003231 54 351 9.0 10.0 0.00 1.12 1.12 99 1017.1
20260502002726 53 357 9.0 14.0 0.00 1.12 1.12 99 1017.0
20260502002225 53 342 7.0 13.0 0.00 1.12 1.12 99 1016.8
20260502001721 53 38 5.0 8.0 0.00 1.12 1.12 99 1016.7
20260502001220 52 26 6.0 9.0 0.00 1.12 1.12 99 1016.8
20260502000717 52 357 6.0 8.0 0.00 1.12 1.12 99 1016.7
20260502000215 52 346 3.0 4.0 0.00 1.12 1.12 99 1016.6
20260501235710 52 331 13.0 18.0 0.00 1.12 1.12 99 1016.6
20260501235206 52 9 7.0 10.0 0.00 1.12 1.12 99 1017.0
20260501234702 52 341 11.0 15.0 0.00 1.12 1.12 99 1017.1
20260501234159 52 328 9.0 14.0 0.00 1.12 1.12 99 1017.0
20260501233657 52 26 7.0 10.0 0.00 1.12 1.12 99 1017.0
20260501233154 53 12 6.0 8.0 0.00 1.12 1.12 99 1016.7
20260501232650 54 343 10.0 16.0 0.00 1.12 1.12 99 1016.4
20260501232148 54 345 12.0 15.0 0.00 1.12 1.12 99 1016.2
20260501231645 54 4 7.0 11.0 0.00 1.12 1.12 99 1016.2
20260501231143 53 337 4.0 4.0 0.00 1.12 1.12 99 1016.5
20260501230641 53 11 9.0 10.0 0.00 1.12 1.12 99 1016.5
20260501230139 53 329 10.0 15.0 0.00 1.12 1.12 99 1016.3
20260501225637 53 37 3.0 4.0 0.00 1.12 1.12 99 1016.1
20260501225133 53 345 8.0 11.0 0.00 1.12 1.12 99 1016.1
20260501224630 54 350 6.0 7.0 0.00 1.12 1.12 99 1016.1
20260501224127 54 348 6.0 9.0 0.00 1.12 1.12 99 1015.9
20260501223623 54 46 13.0 17.0 0.00 1.12 1.12 99 1015.7
20260501223120 54 353 5.0 6.0 0.07 1.12 1.12 99 1015.8
20260501222616 55 32 8.0 10.0 0.07 1.12 1.12 99 1016.3
20260501222113 55 295 4.0 6.0 0.05 1.11 1.11 99 1016.0
20260501221610 55 350 7.0 10.0 0.05 1.11 1.11 99 1016.1
20260501221108 55 0 4.0 6.0 0.07 1.10 1.10 99 1015.8
20260501220605 55 26 12.0 15.0 0.12 1.10 1.10 99 1015.7
20260501215558 54 322 8.0 9.0 0.14 1.08 1.08 99 1015.6
20260501215053 54 6 4.0 4.0 0.12 1.07 1.07 99 1015.9
20260501214549 55 311 10.0 13.0 0.17 1.06 1.06 99 1016.0
20260501214045 55 308 9.0 11.0 0.12 1.05 1.05 99 1015.9
20260501213542 55 325 4.0 4.0 0.00 1.03 1.03 99 1015.6
20260501213038 55 11 4.0 7.0 0.00 1.03 1.03 99 1015.3
20260501212534 55 296 8.0 11.0 0.00 1.03 1.03 99 1015.2
20260501212032 55 347 2.0 3.0 0.00 1.03 1.03 99 1014.9
20260501211528 55 327 9.0 14.0 0.00 1.03 1.03 99 1014.8
20260501211027 55 2 9.0 13.0 0.00 1.03 1.03 99 1014.7
20260501210522 55 353 5.0 8.0 0.00 1.03 1.03 99 1014.5
20260501210019 55 347 6.0 10.0 0.00 1.03 1.03 99 1014.4
20260501205516 56 8 6.0 9.0 0.00 1.03 1.03 99 1014.2
20260501205013 56 323 10.0 15.0 0.00 1.03 1.03 99 1013.9
20260501204509 56 39 6.0 11.0 0.00 1.03 1.03 99 1014.1
20260501204005 56 50 12.0 15.0 0.00 1.03 1.03 99 1014.1
20260501203502 56 34 11.0 17.0 0.00 1.03 1.03 99 1013.8
20260501203000 56 338 14.0 21.0 0.00 1.03 1.03 99 1013.8
20260501202456 56 26 7.0 9.0 0.00 1.03 1.03 99 1013.2
20260501201953 56 344 4.0 7.0 0.00 1.03 1.03 99 1013.4
20260501201450 56 55 6.0 8.0 0.00 1.03 1.03 99 1013.8
20260501200947 56 354 7.0 10.0 0.00 1.03 1.03 99 1013.6